User: anonymous   Login
Location: Starry Hill Observatory
(46.8582°N, 122.3590°W)
Time: 13:47:34
(UTC-08:00)
Language:

Cosmos 1300 Rocket - Orbit

View from above orbital plane
View from above orbital plane
View from above satellite
View from above satellite

Ground track
Ground track

The orbit data is extracted from the following two-line orbital elements,

1 12786U 81082B   16337.94188046 +.00000094 +00000-0 +82284-5 0  9995
2 12786 082.4870 152.6645 0017581 177.9243 182.2049 14.84656331884590
Epoch (UTC): 02 December 2016 22:36:18
Eccentricity: 0.0017581
inclination: 82.4870°
perigee height: 602 km
apogee height: 627 km
right ascension of ascending node: 152.6645°
argument of perigee: 177.9243°
revolutions per day: 14.84656331
mean anomaly at epoch: 182.2049°
orbit number at epoch: 88459

The dashed part of the orbit path shows where the satellite is in the earth's shadow,  

DLR